Moffett NAS, CA

8:45 AM PDT on April 27, 2017 (GMT -0700)
Moffett Federal Air Field

Weather History for KNUQ - August, 2013

Change the Weather History Date:

Saturday, August 17, 2013

  Actual Average Record
Temperature  
Mean Temperature 68 °F 68 °F  
Max Temperature 75 °F 77 °F 85 °F (1993)
Min Temperature 61 °F 59 °F 50 °F (1956)
Degree Days  
Heating Degree Days 0    
Month to date heating degree days 3  
Since 1 June heating degree days 17  
Since 1 July heating degree days 4  
Cooling Degree Days 3    
Month to date cooling degree days 29  
Year to date cooling degree days 294  
Since 1 June cooling degree days 220  
Growing Degree Days 18 (Base 50)    
Moisture  
Dew Point 58 °F    
Average Humidity 76    
Maximum Humidity 90    
Minimum Humidity 61    
Precipitation  
Precipitation 0.00 in 0.00 in 0.06 in (1976)
Month to date precipitation 0.00 0.00  
Year to date precipitation 1.82 9.65  
Since 1 July precipitation T  
Sea Level Pressure  
Sea Level Pressure 29.97 in    
Wind  
Wind Speed 5 mph (North)    
Max Wind Speed 17 mph    
Max Gust Speed 20 mph    
Visibility 10 miles    
Events      
T = Trace of Precipitation, MM = Missing Value Source: NWS Daily Summary

Daily Weather History Graph

Daily Weather History Graph

Search for Another Location

Airport or City:

Trip Planner

Search our weather history database for the weather conditions in past years. The results will help you decide how hot, cold, wet, or windy it might be!

Date:

Astronomy

Aug. 17, 2013 Rise Set
Actual Time 6:26 AM PDT 7:57 PM PDT
Civil Twilight 5:58 AM PDT 8:24 PM PDT
Nautical Twilight 5:25 AM PDT 8:58 PM PDT
Astronomical Twilight 4:50 AM PDT 9:32 PM PDT
Moon 5:15 PM PDT (8/17) 2:37 AM PDT (8/17)
Length of Visible Light 14h 26m
Length of Day
13h 31m
Waxing Gibbous, 85% of the Moon is Illuminated
Aug 17
Waxing Gibbous
Aug 20
Full
Aug 28
Last Quarter
Sep 5
New
Sep 12
First Quarter

Hourly Weather History & Observations

Time (PDT) Temp. Dew Point Humidity Pressure Visibility Wind Dir Wind Speed Gust Speed Precip Events Conditions
12:56 AM 62.1 °F 57.0 °F 84% 30.00 in 10.0 mi NNE 3.5 mph - N/A   Clear
1:56 AM 62.1 °F 57.0 °F 84% 29.99 in 10.0 mi Calm Calm - N/A   Clear
2:56 AM 62.1 °F 57.0 °F 84% 29.99 in 10.0 mi Calm Calm - N/A   Clear
3:56 AM 62.1 °F 57.0 °F 84% 29.98 in 10.0 mi Calm Calm - N/A   Clear
4:56 AM 62.1 °F 55.9 °F 80% 29.99 in 10.0 mi Calm Calm - N/A   Clear
5:56 AM 62.1 °F 57.0 °F 84% 29.99 in 10.0 mi Calm Calm - N/A   Clear
6:56 AM 62.1 °F 55.9 °F 80% 30.00 in 10.0 mi Calm Calm - N/A   Clear
7:56 AM 63.0 °F 57.9 °F 84% 30.00 in 10.0 mi Calm Calm - N/A   Clear
8:56 AM 64.9 °F 57.0 °F 75% 30.01 in 10.0 mi North 3.5 mph - N/A   Clear
9:56 AM 64.9 °F 57.0 °F 75% 30.01 in 10.0 mi NNE 4.6 mph - N/A   Clear
10:56 AM 66.9 °F 57.9 °F 73% 30.02 in 10.0 mi Calm Calm - N/A   Clear
11:56 AM 71.1 °F 57.0 °F 61% 30.00 in 10.0 mi NNW 8.1 mph - N/A   Clear
12:56 PM 70.0 °F 59.0 °F 68% 29.99 in 10.0 mi Variable 6.9 mph - N/A   Clear
1:56 PM 69.1 °F 59.0 °F 70% 29.98 in 10.0 mi North 11.5 mph - N/A   Clear
2:56 PM 71.1 °F 57.9 °F 63% 29.96 in 10.0 mi NNW 10.4 mph - N/A   Clear
3:56 PM 73.9 °F 60.1 °F 62% 29.94 in 10.0 mi North 11.5 mph - N/A   Clear
4:56 PM 73.9 °F 60.1 °F 62% 29.94 in 10.0 mi North 11.5 mph - N/A   Clear
5:56 PM 73.0 °F 61.0 °F 66% 29.93 in 10.0 mi NNE 9.2 mph - N/A   Clear
6:56 PM 70.0 °F 61.0 °F 73% 29.92 in 10.0 mi NNE 13.8 mph - N/A   Clear
7:56 PM 66.9 °F 60.1 °F 79% 29.92 in 10.0 mi North 11.5 mph - N/A   Clear
8:56 PM 64.9 °F 59.0 °F 81% 29.93 in 10.0 mi NE 5.8 mph - N/A   Clear
9:56 PM 64.0 °F 59.0 °F 84% 29.94 in 10.0 mi NNE 5.8 mph - N/A   Clear
10:56 PM 63.0 °F 59.0 °F 87% 29.92 in 10.0 mi North 5.8 mph - N/A   Clear
11:56 PM 63.0 °F 59.0 °F 87% 29.92 in 10.0 mi NNE 5.8 mph - N/A   Mostly Cloudy